Year,Month,Day,Hour,Minute,Value (Times are PST for temperature in C)
2015,06,18,00,00,16.00
2015,06,18,00,01,16.00
2015,06,18,00,02,16.00
2015,06,18,00,03,15.90
2015,06,18,00,04,16.00
2015,06,18,00,05,15.90
2015,06,18,00,06,15.90
2015,06,18,00,07,15.90
2015,06,18,00,08,15.90
2015,06,18,00,09,15.90
2015,06,18,00,10,15.90
2015,06,18,00,11,15.90
2015,06,18,00,12,15.90
2015,06,18,00,13,15.90
2015,06,18,00,14,15.90
2015,06,18,00,15,15.90
2015,06,18,00,16,15.90
2015,06,18,00,17,15.90
2015,06,18,00,18,15.90
2015,06,18,00,19,15.90
2015,06,18,00,20,15.90
2015,06,18,00,21,15.90
2015,06,18,00,22,15.90
2015,06,18,00,23,15.90
2015,06,18,00,24,15.90
2015,06,18,00,25,15.90
2015,06,18,00,26,15.90
2015,06,18,00,27,15.90
2015,06,18,00,28,15.90
2015,06,18,00,29,15.90
2015,06,18,00,30,15.90
2015,06,18,00,31,15.90
2015,06,18,00,32,15.90
2015,06,18,00,33,15.90
2015,06,18,00,34,15.90
2015,06,18,00,35,15.90
2015,06,18,00,36,15.90
2015,06,18,00,37,15.90
2015,06,18,00,38,15.90
2015,06,18,00,39,15.90
2015,06,18,00,40,15.90
2015,06,18,00,41,15.90
2015,06,18,00,42,15.90
2015,06,18,00,43,15.90
2015,06,18,00,44,15.90
2015,06,18,00,45,15.90
2015,06,18,00,46,15.90
2015,06,18,00,47,15.90
2015,06,18,00,48,15.90
2015,06,18,00,49,15.90
2015,06,18,00,50,15.90
2015,06,18,00,51,15.90
2015,06,18,00,52,15.90
2015,06,18,00,53,16.00
2015,06,18,00,54,16.00
2015,06,18,00,55,16.00
2015,06,18,00,56,16.00
2015,06,18,00,57,16.00
2015,06,18,00,58,16.00
2015,06,18,00,59,15.90
2015,06,18,01,00,15.90
2015,06,18,01,01,15.90
2015,06,18,01,02,15.90
2015,06,18,01,03,15.90
2015,06,18,01,04,15.90
2015,06,18,01,05,15.90
2015,06,18,01,06,15.90
2015,06,18,01,07,15.90
2015,06,18,01,08,15.90
2015,06,18,01,09,15.90
2015,06,18,01,10,15.90
2015,06,18,01,11,15.90
2015,06,18,01,12,15.90
2015,06,18,01,13,15.90
2015,06,18,01,14,15.90
2015,06,18,01,15,15.90
2015,06,18,01,16,15.90
2015,06,18,01,17,15.90
2015,06,18,01,18,15.90
2015,06,18,01,19,15.90
2015,06,18,01,20,15.90
2015,06,18,01,21,15.90
2015,06,18,01,22,15.90
2015,06,18,01,23,15.90
2015,06,18,01,24,15.90
2015,06,18,01,25,15.90
2015,06,18,01,26,15.90
2015,06,18,01,27,15.90
2015,06,18,01,28,15.90
2015,06,18,01,29,15.90
2015,06,18,01,30,15.90
2015,06,18,01,31,15.90
2015,06,18,01,32,15.90
2015,06,18,01,33,15.90
2015,06,18,01,34,15.90
2015,06,18,01,35,15.90
2015,06,18,01,36,15.90
2015,06,18,01,37,15.90
2015,06,18,01,38,15.90
2015,06,18,01,39,15.90
2015,06,18,01,40,15.90
2015,06,18,01,41,15.90
2015,06,18,01,42,15.90
2015,06,18,01,43,15.90
2015,06,18,01,44,15.90
2015,06,18,01,45,15.90
2015,06,18,01,46,15.90
2015,06,18,01,47,15.90
2015,06,18,01,48,15.90
2015,06,18,01,49,15.80
2015,06,18,01,50,15.80
2015,06,18,01,51,15.90
2015,06,18,01,52,15.80
2015,06,18,01,53,15.80
2015,06,18,01,54,15.90
2015,06,18,01,55,15.90
2015,06,18,01,56,15.90
2015,06,18,01,57,15.90
2015,06,18,01,58,15.90
2015,06,18,01,59,15.90
2015,06,18,02,00,15.90
2015,06,18,02,01,15.90
2015,06,18,02,02,15.90
2015,06,18,02,03,15.90
2015,06,18,02,04,15.90
2015,06,18,02,05,15.90
2015,06,18,02,06,15.80
2015,06,18,02,07,15.80
2015,06,18,02,08,15.80
2015,06,18,02,09,15.80
2015,06,18,02,10,15.80
2015,06,18,02,11,15.80
2015,06,18,02,12,15.80
2015,06,18,02,13,15.90
2015,06,18,02,14,15.90
2015,06,18,02,15,15.90
2015,06,18,02,16,15.90
2015,06,18,02,17,15.90
2015,06,18,02,18,15.80
2015,06,18,02,19,15.80
2015,06,18,02,20,15.80
2015,06,18,02,21,15.80
2015,06,18,02,22,15.80
2015,06,18,02,23,15.80
2015,06,18,02,24,15.80
2015,06,18,02,25,15.80
2015,06,18,02,26,15.80
2015,06,18,02,27,15.80
2015,06,18,02,28,15.80
2015,06,18,02,29,15.80
2015,06,18,02,30,15.80
2015,06,18,02,31,15.80
2015,06,18,02,32,15.80
2015,06,18,02,33,15.80
2015,06,18,02,34,15.80
2015,06,18,02,35,15.80
2015,06,18,02,36,15.80
2015,06,18,02,37,15.80
2015,06,18,02,38,15.80
2015,06,18,02,39,15.80
2015,06,18,02,40,15.80
2015,06,18,02,41,15.80
2015,06,18,02,42,15.80
2015,06,18,02,43,15.70
2015,06,18,02,44,15.70
2015,06,18,02,45,15.70
2015,06,18,02,46,15.70
2015,06,18,02,47,15.70
2015,06,18,02,48,15.70
2015,06,18,02,49,15.70
2015,06,18,02,50,15.70
2015,06,18,02,51,15.70
2015,06,18,02,52,15.70
2015,06,18,02,53,15.70
2015,06,18,02,54,15.70
2015,06,18,02,55,15.70
2015,06,18,02,56,15.70
2015,06,18,02,57,15.70
2015,06,18,02,58,15.70
2015,06,18,02,59,15.70
2015,06,18,03,00,15.70
2015,06,18,03,01,15.70
2015,06,18,03,02,15.60
2015,06,18,03,06,15.60
2015,06,18,03,07,15.60
2015,06,18,03,08,15.60
2015,06,18,03,09,15.60
2015,06,18,03,10,15.60
2015,06,18,03,11,15.60
2015,06,18,03,12,15.60
2015,06,18,03,13,15.60
2015,06,18,03,14,15.60
2015,06,18,03,15,15.60
2015,06,18,03,16,15.60
2015,06,18,03,17,15.60
2015,06,18,03,18,15.60
2015,06,18,03,19,15.60
2015,06,18,03,20,15.60
2015,06,18,03,21,15.60
2015,06,18,03,22,15.60
2015,06,18,03,23,15.60
2015,06,18,03,24,15.60
2015,06,18,03,25,15.60
2015,06,18,03,26,15.60
2015,06,18,03,27,15.60
2015,06,18,03,28,15.60
2015,06,18,03,29,15.60
2015,06,18,03,30,15.60
2015,06,18,03,31,15.60
2015,06,18,03,32,15.60
2015,06,18,03,33,15.60
2015,06,18,03,34,15.60
2015,06,18,03,35,15.60
2015,06,18,03,36,15.60
2015,06,18,03,37,15.60
2015,06,18,03,38,15.60
2015,06,18,03,39,15.60
2015,06,18,03,40,15.60
2015,06,18,03,41,15.60
2015,06,18,03,42,15.60
2015,06,18,03,43,15.60
2015,06,18,03,44,15.60
2015,06,18,03,45,15.60
2015,06,18,03,46,15.60
2015,06,18,03,47,15.60
2015,06,18,03,48,15.60
2015,06,18,03,49,15.60
2015,06,18,03,50,15.60
2015,06,18,03,51,15.60
2015,06,18,03,52,15.60
2015,06,18,03,53,15.60
2015,06,18,03,54,15.60
2015,06,18,03,55,15.60
2015,06,18,03,56,15.60
2015,06,18,03,57,15.60
2015,06,18,03,58,15.60
2015,06,18,03,59,15.60
2015,06,18,04,00,15.60
2015,06,18,04,01,15.60
2015,06,18,04,02,15.70
2015,06,18,04,03,15.70
2015,06,18,04,04,15.70
2015,06,18,04,05,15.70
2015,06,18,04,06,15.70
2015,06,18,04,07,15.70
2015,06,18,04,08,15.70
2015,06,18,04,09,15.70
2015,06,18,04,10,15.70
2015,06,18,04,11,15.70
2015,06,18,04,12,15.70
2015,06,18,04,13,15.70
2015,06,18,04,14,15.70
2015,06,18,04,15,15.70
2015,06,18,04,16,15.70
2015,06,18,04,17,15.70
2015,06,18,04,18,15.70
2015,06,18,04,19,15.70
2015,06,18,04,20,15.70
2015,06,18,04,21,15.70
2015,06,18,04,22,15.60
2015,06,18,04,23,15.60
2015,06,18,04,24,15.60
2015,06,18,04,25,15.60
2015,06,18,04,26,15.60
2015,06,18,04,27,15.60
2015,06,18,04,28,15.60
2015,06,18,04,29,15.60
2015,06,18,04,30,15.60
2015,06,18,04,31,15.60
2015,06,18,04,32,15.60
2015,06,18,04,33,15.60
2015,06,18,04,34,15.60
2015,06,18,04,35,15.60
2015,06,18,04,36,15.60
2015,06,18,04,37,15.60
2015,06,18,04,38,15.60
2015,06,18,04,39,15.60
2015,06,18,04,40,15.60
2015,06,18,04,41,15.60
2015,06,18,04,42,15.60
2015,06,18,04,43,15.60
2015,06,18,04,44,15.60
2015,06,18,04,45,15.60
2015,06,18,04,46,15.60
2015,06,18,04,47,15.60
2015,06,18,04,48,15.60
2015,06,18,04,49,15.60
2015,06,18,04,50,15.60
2015,06,18,04,51,15.70
2015,06,18,04,52,15.70
2015,06,18,04,53,15.70
2015,06,18,04,54,15.60
2015,06,18,04,55,15.60
2015,06,18,04,56,15.60
2015,06,18,04,57,15.60
2015,06,18,04,58,15.60
2015,06,18,04,59,15.60
2015,06,18,05,00,15.60
2015,06,18,05,01,15.60
2015,06,18,05,02,15.60
2015,06,18,05,03,15.60
2015,06,18,05,04,15.60
2015,06,18,05,05,15.60
2015,06,18,05,06,15.60
2015,06,18,05,07,15.60
2015,06,18,05,08,15.60
2015,06,18,05,09,15.60
2015,06,18,05,10,15.60
2015,06,18,05,11,15.60
2015,06,18,05,12,15.60
2015,06,18,05,13,15.60
2015,06,18,05,14,15.60
2015,06,18,05,15,15.60
2015,06,18,05,16,15.60
2015,06,18,05,17,15.60
2015,06,18,05,18,15.60
2015,06,18,05,19,15.60
2015,06,18,05,20,15.60
2015,06,18,05,21,15.60
2015,06,18,05,22,15.60
2015,06,18,05,23,15.60
2015,06,18,05,24,15.60
2015,06,18,05,25,15.60
2015,06,18,05,26,15.60
2015,06,18,05,27,15.60
2015,06,18,05,28,15.60
2015,06,18,05,29,15.60
2015,06,18,05,30,15.60
2015,06,18,05,31,15.60
2015,06,18,05,32,15.60
2015,06,18,05,33,15.60
2015,06,18,05,34,15.60
2015,06,18,05,35,15.60
2015,06,18,05,36,15.60
2015,06,18,05,37,15.60
2015,06,18,05,38,15.60
2015,06,18,05,39,15.60
2015,06,18,05,40,15.60
2015,06,18,05,41,15.60
2015,06,18,05,42,15.60
2015,06,18,05,43,15.60
2015,06,18,05,44,15.70
2015,06,18,05,45,15.70
2015,06,18,05,46,15.70
2015,06,18,05,47,15.70
2015,06,18,05,48,15.70
2015,06,18,05,49,15.70
2015,06,18,05,50,15.70
2015,06,18,05,51,15.70
2015,06,18,05,52,15.70
2015,06,18,05,53,15.70
2015,06,18,05,54,15.70
2015,06,18,05,55,15.70
2015,06,18,05,56,15.70
2015,06,18,05,57,15.70
2015,06,18,05,58,15.70
2015,06,18,05,59,15.70
2015,06,18,06,00,15.70
2015,06,18,06,01,15.70
2015,06,18,06,02,15.70
2015,06,18,06,03,15.70
2015,06,18,06,04,15.80
2015,06,18,06,05,15.80
2015,06,18,06,06,15.80
2015,06,18,06,07,15.80
2015,06,18,06,08,15.80
2015,06,18,06,09,15.80
2015,06,18,06,10,15.80
2015,06,18,06,11,15.80
2015,06,18,06,12,15.80
2015,06,18,06,13,15.80
2015,06,18,06,14,15.80
2015,06,18,06,15,15.80
2015,06,18,06,16,15.80
2015,06,18,06,17,15.80
2015,06,18,06,18,15.80
2015,06,18,06,19,15.80
2015,06,18,06,20,15.80
2015,06,18,06,21,15.80
2015,06,18,06,22,15.80
2015,06,18,06,23,15.80
2015,06,18,06,24,15.80
2015,06,18,06,25,15.80
2015,06,18,06,26,15.80
2015,06,18,06,27,15.80
2015,06,18,06,28,15.80
2015,06,18,06,29,15.90
2015,06,18,06,30,15.90
2015,06,18,06,31,15.90
2015,06,18,06,32,15.90
2015,06,18,06,33,15.90
2015,06,18,06,34,16.00
2015,06,18,06,35,16.00
2015,06,18,06,36,16.00
2015,06,18,06,37,16.10
2015,06,18,06,38,16.10
2015,06,18,06,39,16.10
2015,06,18,06,40,16.10
2015,06,18,06,41,16.10
2015,06,18,06,42,16.10
2015,06,18,06,43,16.10
2015,06,18,06,44,16.20
2015,06,18,06,45,16.20
2015,06,18,06,46,16.20
2015,06,18,06,47,16.20
2015,06,18,06,48,16.20
2015,06,18,06,49,16.30
2015,06,18,06,50,16.30
2015,06,18,06,51,16.30
2015,06,18,06,52,16.30
2015,06,18,06,53,16.30
2015,06,18,06,54,16.30
2015,06,18,06,55,16.30
2015,06,18,06,56,16.40
2015,06,18,06,57,16.40
2015,06,18,06,58,16.40
2015,06,18,06,59,16.40
2015,06,18,07,00,16.40
2015,06,18,07,01,16.40
2015,06,18,07,02,16.40
2015,06,18,07,03,16.50
2015,06,18,07,04,16.50
2015,06,18,07,05,16.50
2015,06,18,07,06,16.50
2015,06,18,07,07,16.60
2015,06,18,07,08,16.60
2015,06,18,07,09,16.60
2015,06,18,07,10,16.60
2015,06,18,07,11,16.60
2015,06,18,07,12,16.70
2015,06,18,07,13,16.70
2015,06,18,07,14,16.70
2015,06,18,07,15,16.70
2015,06,18,07,16,16.70
2015,06,18,07,17,16.70
2015,06,18,07,18,16.80
2015,06,18,07,19,16.80
2015,06,18,07,20,16.80
2015,06,18,07,21,16.80
2015,06,18,07,22,16.80
2015,06,18,07,23,16.90
2015,06,18,07,24,16.90
2015,06,18,07,25,16.90
2015,06,18,07,26,16.90
2015,06,18,07,27,16.90
2015,06,18,07,28,16.90
2015,06,18,07,29,17.00
2015,06,18,07,30,17.00
2015,06,18,07,31,17.00
2015,06,18,07,32,17.00
2015,06,18,07,33,17.00
2015,06,18,07,34,17.10
2015,06,18,07,35,17.10
2015,06,18,07,36,17.10
2015,06,18,07,37,17.10
2015,06,18,07,38,17.10
2015,06,18,07,39,17.10
2015,06,18,07,40,17.10
2015,06,18,07,41,17.20
2015,06,18,07,42,17.20
2015,06,18,07,43,17.20
2015,06,18,07,44,17.20
2015,06,18,07,45,17.30
2015,06,18,07,46,17.30
2015,06,18,07,47,17.30
2015,06,18,07,48,17.30
2015,06,18,07,49,17.30
2015,06,18,07,50,17.30
2015,06,18,07,51,17.40
2015,06,18,07,52,17.40
2015,06,18,07,53,17.40
2015,06,18,07,54,17.40
2015,06,18,07,55,17.50
2015,06,18,07,56,17.50
2015,06,18,07,57,17.50
2015,06,18,07,58,17.50
2015,06,18,07,59,17.60
2015,06,18,08,00,17.60
2015,06,18,08,01,17.60
2015,06,18,08,02,17.60
2015,06,18,08,03,17.60
2015,06,18,08,04,17.60
2015,06,18,08,05,17.60
2015,06,18,08,06,17.60
2015,06,18,08,07,17.60
2015,06,18,08,08,17.70
2015,06,18,08,09,17.70
2015,06,18,08,10,17.70
2015,06,18,08,11,17.70
2015,06,18,08,12,17.70
2015,06,18,08,13,17.80
2015,06,18,08,14,17.80
2015,06,18,08,15,17.90
2015,06,18,08,16,17.90
2015,06,18,08,17,17.90
2015,06,18,08,18,17.90
2015,06,18,08,19,18.00
2015,06,18,08,20,18.00
2015,06,18,08,21,18.10
2015,06,18,08,22,18.10
2015,06,18,08,23,18.20
2015,06,18,08,24,18.20
2015,06,18,08,25,18.30
2015,06,18,08,26,18.40
2015,06,18,08,27,18.50
2015,06,18,08,28,18.50
2015,06,18,08,29,18.60
2015,06,18,08,30,18.50
2015,06,18,08,31,18.50
2015,06,18,08,32,18.40
2015,06,18,08,33,18.40
2015,06,18,08,34,18.40
2015,06,18,08,35,18.40
2015,06,18,08,36,18.40
2015,06,18,08,37,18.50
2015,06,18,08,38,18.50
2015,06,18,08,39,18.60
2015,06,18,08,40,18.60
2015,06,18,08,41,18.60
2015,06,18,08,42,18.70
2015,06,18,08,43,18.70
2015,06,18,08,44,18.70
2015,06,18,08,45,18.70
2015,06,18,08,46,18.70
2015,06,18,08,47,18.70
2015,06,18,08,48,18.80
2015,06,18,08,49,18.90
2015,06,18,08,50,19.00
2015,06,18,08,51,19.00
2015,06,18,08,52,19.10
2015,06,18,08,53,19.10
2015,06,18,08,54,19.10
2015,06,18,08,55,19.20
2015,06,18,08,56,19.20
2015,06,18,08,57,19.20
2015,06,18,08,58,19.20
2015,06,18,08,59,19.20
2015,06,18,09,00,19.20
2015,06,18,09,01,19.20
2015,06,18,09,02,19.10
2015,06,18,09,03,19.00
2015,06,18,09,04,18.90
2015,06,18,09,05,18.90
2015,06,18,09,06,18.90
2015,06,18,09,07,18.90
2015,06,18,09,08,18.90
2015,06,18,09,09,18.90
2015,06,18,09,10,18.90
2015,06,18,09,11,18.80
2015,06,18,09,12,18.80
2015,06,18,09,13,18.70
2015,06,18,09,14,18.60
2015,06,18,09,15,18.60
2015,06,18,09,16,18.50
2015,06,18,09,17,18.50
2015,06,18,09,18,18.40
2015,06,18,09,19,18.40
2015,06,18,09,20,18.40
2015,06,18,09,21,18.40
2015,06,18,09,22,18.40
2015,06,18,09,23,18.40
2015,06,18,09,24,18.40
2015,06,18,09,25,18.40
2015,06,18,09,26,18.30
2015,06,18,09,27,18.30
2015,06,18,09,28,18.30
2015,06,18,09,29,18.30
2015,06,18,09,30,18.30
2015,06,18,09,31,18.30
2015,06,18,09,32,18.20
2015,06,18,09,33,18.20
2015,06,18,09,34,18.10
2015,06,18,09,35,18.10
2015,06,18,09,36,18.10
2015,06,18,09,37,18.10
2015,06,18,09,38,18.10
2015,06,18,09,39,18.10
2015,06,18,09,40,18.10
2015,06,18,09,41,18.10
2015,06,18,09,42,18.10
2015,06,18,09,43,18.20
2015,06,18,09,44,18.20
2015,06,18,09,45,18.20
2015,06,18,09,46,18.30
2015,06,18,09,47,18.40
2015,06,18,09,48,18.50
2015,06,18,09,49,18.60
2015,06,18,09,50,18.60
2015,06,18,09,51,18.60
2015,06,18,09,52,18.60
2015,06,18,09,53,18.50
2015,06,18,09,54,18.40
2015,06,18,09,55,18.40
2015,06,18,09,56,18.40
2015,06,18,09,57,18.30
2015,06,18,09,58,18.30
2015,06,18,09,59,18.20
2015,06,18,10,00,18.10
2015,06,18,10,01,18.00
2015,06,18,10,02,18.00
2015,06,18,10,03,17.90
2015,06,18,10,04,17.90
2015,06,18,10,05,17.90
2015,06,18,10,06,17.90
2015,06,18,10,07,17.80
2015,06,18,10,08,17.90
2015,06,18,10,09,17.90
2015,06,18,10,10,17.90
2015,06,18,10,11,17.90
2015,06,18,10,12,18.00
2015,06,18,10,13,18.00
2015,06,18,10,14,18.10
2015,06,18,10,15,18.10
2015,06,18,10,16,18.10
2015,06,18,10,17,18.20
2015,06,18,10,18,18.20
2015,06,18,10,19,18.20
2015,06,18,10,20,18.20
2015,06,18,10,21,18.30
2015,06,18,10,22,18.30
2015,06,18,10,23,18.30
2015,06,18,10,24,18.30
2015,06,18,10,25,18.30
2015,06,18,10,26,18.30
2015,06,18,10,27,18.30
2015,06,18,10,28,18.40
2015,06,18,10,29,18.40
2015,06,18,10,30,18.50
2015,06,18,10,31,18.60
2015,06,18,10,32,18.60
2015,06,18,10,33,18.70
2015,06,18,10,34,18.70
2015,06,18,10,35,18.80
2015,06,18,10,36,18.90
2015,06,18,10,37,19.00
2015,06,18,10,38,19.00
2015,06,18,10,39,19.10
2015,06,18,10,40,19.20
2015,06,18,10,41,19.20
2015,06,18,10,42,19.20
2015,06,18,10,43,19.20
2015,06,18,10,44,19.20
2015,06,18,10,45,19.20
2015,06,18,10,46,19.20
2015,06,18,10,47,19.10
2015,06,18,10,48,18.90
2015,06,18,10,49,18.90
2015,06,18,10,50,18.80
2015,06,18,10,51,18.80
2015,06,18,10,52,18.70
2015,06,18,10,53,18.70
2015,06,18,10,54,18.60
2015,06,18,10,55,18.60
2015,06,18,10,56,18.60
2015,06,18,10,57,18.60
2015,06,18,10,58,18.50
2015,06,18,10,59,18.50
2015,06,18,11,00,18.50
2015,06,18,11,01,18.40
2015,06,18,11,02,18.40
2015,06,18,11,03,18.40
2015,06,18,11,04,18.30
2015,06,18,11,05,18.30
2015,06,18,11,06,18.30
2015,06,18,11,07,18.30
2015,06,18,11,08,18.30
2015,06,18,11,09,18.40
2015,06,18,11,10,18.40
2015,06,18,11,11,18.40
2015,06,18,11,12,18.40
2015,06,18,11,13,18.40
2015,06,18,11,14,18.40
2015,06,18,11,15,18.40
2015,06,18,11,16,18.50
2015,06,18,11,17,18.50
2015,06,18,11,18,18.60
2015,06,18,11,19,18.60
2015,06,18,11,20,18.60
2015,06,18,11,21,18.60
2015,06,18,11,22,18.60
2015,06,18,11,23,18.70
2015,06,18,11,24,18.70
2015,06,18,11,25,18.70
2015,06,18,11,26,18.80
2015,06,18,11,27,18.80
2015,06,18,11,28,18.80
2015,06,18,11,29,18.80
2015,06,18,11,30,18.70
2015,06,18,11,31,18.70
2015,06,18,11,32,18.70
2015,06,18,11,33,18.60
2015,06,18,11,34,18.60
2015,06,18,11,35,18.60
2015,06,18,11,36,18.60
2015,06,18,11,37,18.50
2015,06,18,11,38,18.50
2015,06,18,11,39,18.50
2015,06,18,11,40,18.50
2015,06,18,11,41,18.60
2015,06,18,11,42,18.60
2015,06,18,11,43,18.60
2015,06,18,11,44,18.70
2015,06,18,11,45,18.70
2015,06,18,11,46,18.80
2015,06,18,11,47,18.80
2015,06,18,11,48,18.70
2015,06,18,11,49,18.70
2015,06,18,11,50,18.70
2015,06,18,11,51,18.70
2015,06,18,11,52,18.70
2015,06,18,11,53,18.70
2015,06,18,11,54,18.70
2015,06,18,11,55,18.60
2015,06,18,11,56,18.70
2015,06,18,11,57,18.70
2015,06,18,11,58,18.70
2015,06,18,11,59,18.70
2015,06,18,12,00,18.70
2015,06,18,12,01,18.70
2015,06,18,12,02,18.70
2015,06,18,12,03,18.70
2015,06,18,12,04,18.70
2015,06,18,12,05,18.70
2015,06,18,12,06,18.70
2015,06,18,12,07,18.70
2015,06,18,12,08,18.70
2015,06,18,12,09,18.70
2015,06,18,12,10,18.70
2015,06,18,12,11,18.70
2015,06,18,12,12,18.70
2015,06,18,12,13,18.70
2015,06,18,12,14,18.80
2015,06,18,12,15,18.80
2015,06,18,12,16,18.80
2015,06,18,12,17,18.80
2015,06,18,12,18,18.80
2015,06,18,12,19,18.90
2015,06,18,12,20,18.90
2015,06,18,12,21,18.90
2015,06,18,12,22,18.90
2015,06,18,12,23,18.90
2015,06,18,12,24,18.90
2015,06,18,12,25,18.90
2015,06,18,12,26,19.00
2015,06,18,12,27,19.00
2015,06,18,12,28,19.00
2015,06,18,12,29,19.00
2015,06,18,12,30,19.00
2015,06,18,12,31,19.00
2015,06,18,12,32,19.10
2015,06,18,12,33,19.10
2015,06,18,12,34,19.10
2015,06,18,12,35,19.10
2015,06,18,12,36,19.10
2015,06,18,12,37,19.10
2015,06,18,12,38,19.10
2015,06,18,12,39,19.10
2015,06,18,12,40,19.10
2015,06,18,12,41,19.20
2015,06,18,12,42,19.20
2015,06,18,12,43,19.20
2015,06,18,12,44,19.30
2015,06,18,12,45,19.30
2015,06,18,12,46,19.40
2015,06,18,12,47,19.40
2015,06,18,12,48,19.40
2015,06,18,12,49,19.40
2015,06,18,12,50,19.40
2015,06,18,12,51,19.40
2015,06,18,12,52,19.40
2015,06,18,12,53,19.30
2015,06,18,12,54,19.30
2015,06,18,12,55,19.30
2015,06,18,12,56,19.30
2015,06,18,12,57,19.30
2015,06,18,12,58,19.30
2015,06,18,12,59,19.30
2015,06,18,13,00,19.40
2015,06,18,13,01,19.50
2015,06,18,13,02,19.50
2015,06,18,13,03,19.50
2015,06,18,13,04,19.60
2015,06,18,13,05,19.70
2015,06,18,13,06,19.80
2015,06,18,13,07,19.90
2015,06,18,13,08,19.90
2015,06,18,13,09,20.00
2015,06,18,13,10,20.10
2015,06,18,13,11,20.20
2015,06,18,13,12,20.20
2015,06,18,13,13,20.20
2015,06,18,13,14,20.10
2015,06,18,13,15,20.10
2015,06,18,13,16,20.10
2015,06,18,13,17,20.00
2015,06,18,13,18,19.90
2015,06,18,13,19,19.90
2015,06,18,13,20,19.80
2015,06,18,13,21,19.80
2015,06,18,13,22,19.70
2015,06,18,13,23,19.70
2015,06,18,13,24,19.70
2015,06,18,13,25,19.80
2015,06,18,13,26,19.80
2015,06,18,13,27,19.90
2015,06,18,13,28,19.90
2015,06,18,13,29,20.00
2015,06,18,13,30,20.10
2015,06,18,13,31,20.10
2015,06,18,13,32,20.10
2015,06,18,13,33,20.20
2015,06,18,13,34,20.30
2015,06,18,13,35,20.30
2015,06,18,13,36,20.30
2015,06,18,13,37,20.30
2015,06,18,13,38,20.20
2015,06,18,13,39,20.20
2015,06,18,13,40,20.20
2015,06,18,13,41,20.10
2015,06,18,13,42,20.10
2015,06,18,13,43,20.10
2015,06,18,13,44,20.10
2015,06,18,13,45,20.00
2015,06,18,13,46,20.00
2015,06,18,13,47,19.90
2015,06,18,13,48,19.90
2015,06,18,13,49,19.80
2015,06,18,13,50,19.80
2015,06,18,13,51,19.80
2015,06,18,13,52,19.80
2015,06,18,13,53,19.70
2015,06,18,13,54,19.80
2015,06,18,13,55,19.80
2015,06,18,13,56,19.80
2015,06,18,13,57,19.80
2015,06,18,13,58,19.80
2015,06,18,13,59,19.80
2015,06,18,14,00,19.80
2015,06,18,14,01,19.70
2015,06,18,14,02,19.70
2015,06,18,14,03,19.60
2015,06,18,14,04,19.60
2015,06,18,14,05,19.60
2015,06,18,14,06,19.60
2015,06,18,14,07,19.60
2015,06,18,14,08,19.70
2015,06,18,14,09,19.70
2015,06,18,14,10,19.80
2015,06,18,14,11,19.80
2015,06,18,14,12,19.90
2015,06,18,14,13,19.90
2015,06,18,14,14,20.00
2015,06,18,14,15,20.00
2015,06,18,14,16,20.00
2015,06,18,14,17,19.90
2015,06,18,14,18,19.90
2015,06,18,14,19,19.90
2015,06,18,14,20,19.90
2015,06,18,14,21,19.80
2015,06,18,14,22,19.80
2015,06,18,14,23,19.80
2015,06,18,14,24,19.80
2015,06,18,14,25,19.80
2015,06,18,14,26,19.80
2015,06,18,14,27,19.80
2015,06,18,14,28,19.80
2015,06,18,14,29,19.80
2015,06,18,14,30,19.80
2015,06,18,14,31,19.80
2015,06,18,14,32,19.70
2015,06,18,14,33,19.70
2015,06,18,14,34,19.80
2015,06,18,14,35,19.70
2015,06,18,14,36,19.70
2015,06,18,14,37,19.70
2015,06,18,14,38,19.70
2015,06,18,14,39,19.70
2015,06,18,14,40,19.70
2015,06,18,14,41,19.70
2015,06,18,14,42,19.60
2015,06,18,14,43,19.60
2015,06,18,14,44,19.60
2015,06,18,14,45,19.60
2015,06,18,14,46,19.60
2015,06,18,14,47,19.70
2015,06,18,14,48,19.70
2015,06,18,14,49,19.70
2015,06,18,14,50,19.70
2015,06,18,14,51,19.80
2015,06,18,14,52,19.80
2015,06,18,14,53,19.80
2015,06,18,14,54,19.80
2015,06,18,14,55,19.80
2015,06,18,14,56,19.80
2015,06,18,14,57,19.80
2015,06,18,14,58,19.80
2015,06,18,14,59,19.80
2015,06,18,15,00,19.80
2015,06,18,15,01,19.90
2015,06,18,15,02,19.90
2015,06,18,15,03,19.90
2015,06,18,15,04,19.90
2015,06,18,15,05,19.90
2015,06,18,15,06,19.90
2015,06,18,15,07,19.90
2015,06,18,15,08,19.80
2015,06,18,15,09,19.80
2015,06,18,15,10,19.70
2015,06,18,15,11,19.70
2015,06,18,15,12,19.70
2015,06,18,15,13,19.70
2015,06,18,15,14,19.70
2015,06,18,15,15,19.70
2015,06,18,15,16,19.80
2015,06,18,15,17,19.80
2015,06,18,15,18,19.80
2015,06,18,15,19,19.80
2015,06,18,15,20,19.80
2015,06,18,15,21,19.80
2015,06,18,15,22,19.70
2015,06,18,15,23,19.70
2015,06,18,15,24,19.70
2015,06,18,15,25,19.70
2015,06,18,15,26,19.70
2015,06,18,15,27,19.70
2015,06,18,15,28,19.60
2015,06,18,15,29,19.60
2015,06,18,15,30,19.50
2015,06,18,15,31,19.50
2015,06,18,15,32,19.50
2015,06,18,15,33,19.40
2015,06,18,15,34,19.40
2015,06,18,15,35,19.40
2015,06,18,15,36,19.30
2015,06,18,15,37,19.30
2015,06,18,15,38,19.30
2015,06,18,15,39,19.30
2015,06,18,15,40,19.30
2015,06,18,15,41,19.30
2015,06,18,15,42,19.40
2015,06,18,15,43,19.40
2015,06,18,15,44,19.40
2015,06,18,15,45,19.40
2015,06,18,15,46,19.40
2015,06,18,15,47,19.40
2015,06,18,15,48,19.40
2015,06,18,15,49,19.40
2015,06,18,15,50,19.40
2015,06,18,15,51,19.30
2015,06,18,15,52,19.30
2015,06,18,15,53,19.30
2015,06,18,15,54,19.30
2015,06,18,15,55,19.30
2015,06,18,15,56,19.30
2015,06,18,15,57,19.30
2015,06,18,15,58,19.20
2015,06,18,15,59,19.20
2015,06,18,16,00,19.20
2015,06,18,16,01,19.20
2015,06,18,16,02,19.20
2015,06,18,16,03,19.10
2015,06,18,16,04,19.20
2015,06,18,16,05,19.20
2015,06,18,16,06,19.20
2015,06,18,16,07,19.20
2015,06,18,16,08,19.20
2015,06,18,16,09,19.20
2015,06,18,16,10,19.20
2015,06,18,16,11,19.30
2015,06,18,16,12,19.30
2015,06,18,16,13,19.30
2015,06,18,16,14,19.30
2015,06,18,16,15,19.20
2015,06,18,16,16,19.20
2015,06,18,16,17,19.20
2015,06,18,16,18,19.20
2015,06,18,16,19,19.20
2015,06,18,16,20,19.10
2015,06,18,16,21,19.10
2015,06,18,16,22,19.00
2015,06,18,16,23,18.90
2015,06,18,16,24,18.90
2015,06,18,16,25,18.80
2015,06,18,16,26,18.80
2015,06,18,16,27,18.80
2015,06,18,16,28,18.80
2015,06,18,16,29,18.80
2015,06,18,16,30,18.80
2015,06,18,16,31,18.80
2015,06,18,16,32,18.80
2015,06,18,16,33,18.80
2015,06,18,16,34,18.80
2015,06,18,16,35,18.80
2015,06,18,16,36,18.80
2015,06,18,16,37,18.90
2015,06,18,16,38,18.90
2015,06,18,16,39,18.90
2015,06,18,16,40,18.90
2015,06,18,16,41,19.00
2015,06,18,16,42,19.00
2015,06,18,16,43,19.10
2015,06,18,16,44,19.10
2015,06,18,16,45,19.20
2015,06,18,16,46,19.20
2015,06,18,16,47,19.20
2015,06,18,16,48,19.20
2015,06,18,16,49,19.20
2015,06,18,16,50,19.30
2015,06,18,16,51,19.20
2015,06,18,16,52,19.30
2015,06,18,16,53,19.20
2015,06,18,16,54,19.20
2015,06,18,16,55,19.20
2015,06,18,16,56,19.20
2015,06,18,16,57,19.20
2015,06,18,16,58,19.20
2015,06,18,16,59,19.20
2015,06,18,17,00,19.20
2015,06,18,17,01,19.20
2015,06,18,17,02,19.10
2015,06,18,17,03,19.10
2015,06,18,17,04,19.10
2015,06,18,17,05,19.00
2015,06,18,17,06,19.00
2015,06,18,17,07,18.90
2015,06,18,17,08,18.90
2015,06,18,17,09,18.90
2015,06,18,17,10,18.90
2015,06,18,17,11,18.90
2015,06,18,17,12,18.90
2015,06,18,17,13,18.90
2015,06,18,17,14,18.90
2015,06,18,17,15,18.90
2015,06,18,17,16,18.90
2015,06,18,17,17,18.90
2015,06,18,17,18,18.90
2015,06,18,17,19,18.90
2015,06,18,17,20,18.90
2015,06,18,17,21,18.90
2015,06,18,17,22,18.90